カタログに戻る

NETSAT-4

運用中科学PO
NORAD 46504·PAYLOAD·🇩🇪 Germany

打ち上げ Sep 28, 2020 から Plesetsk Cosmodrome

Loading…

次のパス (今後24時間)

TLE

最新Source: Space-Track

元期: Sep 14, 2026, 11:42 UTC

1 46504U 20068U   26257.48760630  .00016875  00000-0  33959-3 0  9990
2 46504  97.8604 273.1038 0005080  22.4364 337.7106 15.46675373329562

AllMySatでNETSAT-4をリアルタイム追跡

Download on the App Store